EW8328 Weather Reports


time (UTC)temp
C
wind
direction
speed
KPH
gust
KPH
rain 1hr
cm
rain 24hr
cm
rain mn
cm
humidity
%
barometer
mb
20260509231400 6 27 9.7 20.9 0.00 0.18 0.00 85 1021.8
20260509230946 6 19 9.7 20.9 0.00 0.18 0.00 85 1021.7
20260509230400 6 355 9.7 29.0 0.00 0.18 0.00 85 1021.7
20260509225901 6 22 9.7 24.1 0.00 0.18 0.18 85 1021.6
20260509225400 6 0 8.0 20.9 0.00 0.18 0.18 86 1021.7
20260509224901 6 16 11.3 20.9 0.00 0.18 0.18 86 1021.7
20260509224400 6 4 11.3 22.5 0.00 0.18 0.18 86 1021.6
20260509223901 6 27 12.9 22.5 0.00 0.18 0.18 86 1021.6
20260509223400 6 0 11.3 20.9 0.00 0.18 0.18 86 1021.6
20260509222400 6 18 12.9 22.5 0.00 0.18 0.18 87 1021.6
20260509221901 6 1 9.7 25.7 0.00 0.18 0.18 87 1021.6
20260509221400 6 15 14.5 25.7 0.00 0.18 0.18 87 1021.6
20260509220401 6 345 8.0 19.3 0.00 0.18 0.18 86 1021.7
20260509215901 6 13 12.9 29.0 0.00 0.18 0.18 86 1021.8
20260509214901 6 10 9.7 19.3 0.00 0.18 0.18 86 1021.7
20260509214400 6 8 9.7 22.5 0.00 0.18 0.18 86 1021.8
20260509213901 6 14 12.9 27.4 0.00 0.18 0.18 86 1021.9
20260509213400 6 10 9.7 27.4 0.00 0.18 0.18 86 1021.8
20260509212401 6 23 9.7 19.3 0.00 0.18 0.18 86 1021.7
20260509211900 6 8 8.0 16.1 0.00 0.18 0.18 86 1021.7
20260509211400 6 0 9.7 19.3 0.00 0.18 0.18 85 1021.8
20260509210900 6 19 9.7 20.9 0.00 0.18 0.18 86 1021.8
20260509210400 6 358 11.3 25.7 0.00 0.18 0.18 86 1021.7
20260509205901 6 358 8.0 22.5 0.00 0.18 0.18 86 1021.7
20260509205400 6 24 9.7 25.7 0.00 0.18 0.18 85 1021.7
20260509204901 6 10 11.3 22.5 0.00 0.18 0.18 85 1021.7
20260509204400 6 7 9.7 22.5 0.00 0.18 0.18 85 1021.6
20260509203901 6 13 9.7 19.3 0.00 0.18 0.18 86 1021.7
20260509203401 6 19 8.0 19.3 0.00 0.18 0.18 86 1021.7
20260509202900 6 5 11.3 27.4 0.00 0.18 0.18 85 1021.6
20260509202400 6 3 12.9 24.1 0.00 0.18 0.18 86 1021.5
20260509201901 6 4 11.3 22.5 0.00 0.18 0.18 86 1021.4
20260509201400 6 6 14.5 25.7 0.00 0.18 0.18 86 1021.4
20260509200400 6 15 11.3 29.0 0.00 0.18 0.18 85 1021.4
20260509195900 6 21 12.9 22.5 0.00 0.18 0.18 85 1021.3
20260509195359 6 11 9.7 32.2 0.00 0.18 0.18 85 1021.2
20260509194401 6 20 11.3 32.2 0.00 0.18 0.18 85 1021.2
20260509193901 6 5 14.5 32.2 0.00 0.18 0.18 85 1021.1
20260509193400 6 4 14.5 32.2 0.00 0.18 0.18 85 1021.1
20260509192900 6 4 11.3 25.7 0.00 0.18 0.18 85 1021.0
20260509192400 6 1 14.5 29.0 0.00 0.18 0.18 86 1021.0
20260509191901 6 350 16.1 27.4 0.00 0.18 0.18 86 1020.9
20260509191400 6 355 12.9 32.2 0.00 0.18 0.18 86 1020.7
20260509190900 6 3 16.1 25.7 0.00 0.18 0.18 86 1020.8
20260509190400 6 25 12.9 25.7 0.00 0.18 0.18 87 1020.8
20260509185900 6 3 14.5 20.9 0.00 0.18 0.18 87 1020.8
20260509185400 6 14 14.5 27.4 0.00 0.18 0.18 87 1020.8
20260509184900 6 7 11.3 37.0 0.00 0.18 0.18 87 1020.8
20260509184400 6 11 11.3 29.0 0.00 0.18 0.18 87 1020.9
20260509183900 6 22 14.5 25.7 0.00 0.18 0.18 88 1021.0
20260509183400 6 25 14.5 25.7 0.00 0.18 0.18 87 1021.0
20260509182900 6 14 14.5 24.1 0.00 0.18 0.18 87 1020.8
20260509182400 6 1 11.3 29.0 0.00 0.18 0.18 87 1020.9
20260509181900 6 16 16.1 29.0 0.00 0.18 0.18 87 1020.9
20260509181400 6 8 12.9 27.4 0.00 0.18 0.18 87 1020.9
20260509175900 7 13 14.5 32.2 0.00 0.18 0.18 87 1020.9
20260509175400 7 359 8.0 19.3 0.00 0.18 0.18 87 1020.9
20260509174901 7 5 9.7 24.1 0.00 0.18 0.18 87 1020.9
20260509174400 7 348 11.3 24.1 0.00 0.18 0.18 87 1020.8
20260509173901 7 23 14.5 24.1 0.00 0.18 0.18 87 1020.5
20260509173400 7 7 11.3 19.3 0.00 0.18 0.18 88 1020.5
20260509172900 7 5 11.3 24.1 0.00 0.18 0.18 88 1020.3
20260509172401 7 7 12.9 22.5 0.00 0.18 0.18 88 1020.4
20260509171900 7 6 12.9 22.5 0.00 0.18 0.18 87 1020.3
20260509171400 7 8 14.5 32.2 0.00 0.18 0.18 87 1020.4
20260509170900 7 4 9.7 20.9 0.00 0.18 0.18 87 1020.4
20260509170400 7 352 11.3 24.1 0.00 0.18 0.18 88 1020.5
20260509165900 7 349 8.0 19.3 0.00 0.18 0.18 87 1020.5
20260509165359 7 10 14.5 25.7 0.00 0.18 0.18 87 1020.4
20260509164900 7 357 11.3 24.1 0.00 0.18 0.18 87 1020.4
20260509164400 7 5 11.3 20.9 0.00 0.18 0.18 87 1020.3
20260509163900 7 0 14.5 25.7 0.00 0.18 0.18 87 1020.2
20260509163400 7 1 9.7 25.7 0.00 0.18 0.18 87 1020.3
20260509162901 7 20 9.7 20.9 0.00 0.18 0.18 87 1020.1
20260509161900 8 16 9.7 24.1 0.00 0.18 0.18 88 1020.2
20260509160900 8 5 14.5 22.5 0.00 0.18 0.18 87 1020.1
20260509160400 8 11 11.3 27.4 0.00 0.18 0.18 87 1019.8
20260509155359 8 21 11.3 24.1 0.00 0.18 0.18 87 1020.0
20260509154900 8 13 11.3 29.0 0.00 0.18 0.18 87 1019.8
20260509154401 8 12 12.9 25.7 0.00 0.18 0.18 88 1019.8
20260509153900 8 356 11.3 25.7 0.00 0.18 0.18 87 1019.9
20260509153400 8 14 11.3 25.7 0.00 0.18 0.18 87 1019.8
20260509152900 8 13 11.3 22.5 0.00 0.18 0.18 88 1019.8
20260509152401 8 18 6.4 16.1 0.00 0.18 0.18 87 1019.8
20260509151900 8 8 9.7 19.3 0.00 0.18 0.18 87 1019.8
20260509151400 9 6 9.7 19.3 0.00 0.18 0.18 87 1019.8
20260509150900 9 15 8.0 16.1 0.00 0.18 0.18 87 1019.9
20260509150400 9 358 9.7 20.9 0.00 0.18 0.18 87 1019.9
20260509145900 9 13 11.3 19.3 0.00 0.23 0.18 87 1019.9
20260509145400 9 14 9.7 19.3 0.00 0.30 0.18 87 1019.9
20260509143900 10 1 4.8 20.9 0.00 0.30 0.18 87 1019.9
20260509143400 10 5 8.0 20.9 0.00 0.30 0.18 87 1019.8
20260509142900 10 351 8.0 20.9 0.00 0.30 0.18 87 1019.7
20260509142401 10 8 9.7 16.1 0.00 0.30 0.18 86 1019.7
20260509141900 10 21 11.3 24.1 0.00 0.30 0.18 86 1019.7
20260509141400 10 6 8.0 14.5 0.00 0.30 0.18 87 1019.7
20260509140900 10 13 8.0 19.3 0.00 0.30 0.18 86 1019.7
20260509140400 10 16 9.7 19.3 0.00 0.30 0.18 86 1019.7
20260509135900 10 14 4.8 20.9 0.00 0.30 0.18 86 1019.8
20260509135400 10 353 8.0 16.1 0.00 0.30 0.18 85 1019.8
20260509134900 10 3 4.8 16.1 0.00 0.30 0.18 85 1019.7
20260509134359 10 349 6.4 16.1 0.00 0.30 0.18 85 1019.7
20260509133900 10 4 9.7 19.3 0.00 0.30 0.18 85 1019.7
20260509133400 10 9 4.8 19.3 0.00 0.30 0.18 85 1019.8
20260509132900 11 351 6.4 19.3 0.00 0.30 0.18 86 1019.8
20260509132401 11 356 8.0 14.5 0.00 0.30 0.18 86 1019.7
20260509131902 11 357 9.7 19.3 0.00 0.30 0.18 85 1019.7
20260509131401 11 17 11.3 19.3 0.00 0.30 0.18 86 1019.7
20260509130400 11 358 3.2 14.5 0.00 0.30 0.18 88 1019.7
20260509125900 10 347 3.2 11.3 0.00 0.30 0.18 88 1019.7
20260509125359 10 17 8.0 20.9 0.00 0.30 0.18 87 1019.8
20260509124900 10 17 4.8 16.1 0.00 0.30 0.18 89 1019.8
20260509122400 11 5 3.2 9.7 0.00 0.30 0.18 88 1019.8
20260509121900 11 9 6.4 12.9 0.00 0.30 0.18 88 1019.8
20260509121400 11 4 6.4 16.1 0.00 0.30 0.18 87 1019.8
20260509120859 11 12 3.2 9.7 0.00 0.30 0.18 87 1019.8
20260509120400 11 6 4.8 11.3 0.00 0.30 0.18 87 1019.8
20260509115900 11 24 3.2 9.7 0.00 0.30 0.18 87 1019.8
20260509114859 11 31 3.2 11.3 0.00 0.30 0.18 88 1019.7
20260509114400 11 358 8.0 12.9 0.00 0.33 0.18 88 1019.7
20260509113859 11 348 6.4 14.5 0.00 0.36 0.18 88 1019.7
20260509113400 11 0 8.0 12.9 0.00 0.38 0.18 89 1019.7
20260509112359 11 357 8.0 14.5 0.00 0.43 0.18 89 1019.7
20260509111359 11 45 3.2 16.1 0.00 0.53 0.18 90 1019.7
20260509110900 11 14 4.8 14.5 0.00 0.53 0.18 90 1019.7
20260509110400 11 27 4.8 11.3 0.03 0.53 0.18 90 1019.7
20260509105900 11 2 4.8 11.3 0.03 0.53 0.18 91 1019.7
20260509104900 11 8 3.2 8.0 0.05 0.53 0.18 91 1019.7
20260509104400 11 19 3.2 8.0 0.13 0.53 0.18 91 1019.8
20260509103900 11 64 3.2 9.7 0.15 0.53 0.18 91 1019.9
20260509103401 10 15 1.6 4.8 0.15 0.53 0.18 91 1019.9
20260509102900 10 48 1.6 4.8 0.15 0.53 0.18 91 1019.9
20260509102400 10 12 1.6 4.8 0.15 0.53 0.18 90 1020.0
20260509101900 10 348 1.6 4.8 0.15 0.53 0.18 90 1020.0
20260509095900 11 20 3.2 8.0 0.13 0.51 0.15 88 1019.9
20260509095400 11 23 3.2 4.8 0.10 0.51 0.15 88 1019.8
20260509094859 11 9 3.2 4.8 0.08 0.48 0.13 87 1019.8
20260509094359 11 9 3.2 4.8 0.03 0.43 0.05 85 1019.8
20260509093900 11 18 3.2 11.3 0.00 0.41 0.05 84 1019.7
20260509093359 11 13 3.2 8.0 0.00 0.41 0.05 84 1019.6
20260509092900 11 21 3.2 9.7 0.00 0.41 0.05 84 1019.5
20260509092400 11 34 3.2 11.3 0.00 0.41 0.05 84 1019.6
20260509091900 11 41 3.2 9.7 0.00 0.41 0.05 84 1019.5
20260509091400 11 4 6.4 11.3 0.00 0.41 0.05 85 1019.4
20260509090859 11 35 3.2 8.0 0.00 0.41 0.05 85 1019.5
20260509090400 11 37 3.2 9.7 0.00 0.41 0.05 85 1019.5
20260509085900 11 20 3.2 9.7 0.00 0.41 0.05 86 1019.5
20260509085401 11 23 3.2 11.3 0.00 0.41 0.05 86 1019.6
20260509084859 11 33 4.8 14.5 0.00 0.41 0.05 86 1019.5
20260509083900 11 4 3.2 8.0 0.00 0.41 0.05 87 1019.5
20260509083400 11 71 3.2 11.3 0.00 0.41 0.05 86 1019.5
20260509082900 11 344 3.2 11.3 0.00 0.41 0.05 87 1019.5
20260509082359 11 17 8.0 12.9 0.00 0.41 0.05 88 1019.5
20260509081901 11 37 3.2 4.8 0.00 0.41 0.05 89 1019.5
20260509081400 11 305 1.6 4.8 0.00 0.41 0.05 90 1019.4
20260509080859 10 202 4.8 4.8 0.00 0.41 0.05 90 1019.4
20260509080359 10 126 3.2 8.0 0.00 0.41 0.05 91 1019.5
20260509075359 10 202 1.6 3.2 0.00 0.41 0.05 93 1019.3
20260509074900 10 202 1.6 3.2 0.00 0.41 0.05 93 1019.4
20260509074359 10 202 1.6 4.8 0.00 0.41 0.05 93 1019.4
20260509073859 10 202 1.6 3.2 0.00 0.41 0.05 93 1019.4
20260509073359 9 202 1.6 3.2 0.00 0.41 0.05 93 1019.4
20260509072859 9 202 1.6 3.2 0.03 0.41 0.05 93 1019.3
20260509071859 9 263 0.0 3.2 0.03 0.41 0.05 93 1019.2
20260509070900 9 263 0.0 3.2 0.05 0.41 0.05 93 1019.2
20260509070359 9 107 0.0 3.2 0.05 0.41 0.05 93 1019.1
20260509065900 9 107 1.6 3.2 0.05 0.41 0.05 93 1019.1
20260509065400 9 107 0.0 3.2 0.05 0.41 0.05 93 1019.1
20260509064859 9 107 1.6 3.2 0.05 0.41 0.05 93 1019.1
20260509064400 9 107 1.6 3.2 0.05 0.41 0.05 93 1019.0
20260509063859 8 107 1.6 4.8 0.05 0.41 0.05 93 1018.9
20260509063359 9 107 1.6 4.8 0.05 0.41 0.05 93 1019.1
20260509062859 9 148 1.6 1.6 0.03 0.38 0.03 93 1019.0
20260509062359 8 148 0.0 3.2 0.03 0.38 0.03 92 1019.0
20260509061400 8 199 0.0 3.2 0.03 0.38 0.03 92 1019.1
20260509060859 8 199 1.6 4.8 0.00 0.36 0.00 92 1019.1
20260509060400 8 114 1.6 1.6 0.00 0.36 0.00 92 1019.1
20260509055900 8 112 0.0 3.2 0.00 0.36 0.00 92 1019.1
20260509055400 8 88 0.0 3.2 0.00 0.36 0.00 92 1019.2
20260509054900 8 88 0.0 3.2 0.00 0.36 0.00 92 1019.2
20260509054359 8 88 1.6 3.2 0.00 0.36 0.00 92 1019.2
20260509053400 8 88 0.0 3.2 0.00 0.36 0.00 91 1019.0
20260509052901 8 88 1.6 4.8 0.00 0.36 0.00 91 1019.0
20260509052401 8 102 1.6 3.2 0.00 0.36 0.00 91 1019.0
20260509050900 8 98 0.0 3.2 0.00 0.36 0.00 90 1018.9
20260509050359 8 98 1.6 4.8 0.00 0.36 0.00 90 1018.8
20260509045359 8 98 3.2 8.0 0.00 0.36 0.00 90 1018.8
20260509044859 8 106 1.6 4.8 0.00 0.36 0.00 90 1018.9
20260509044359 8 111 1.6 3.2 0.00 0.36 0.00 90 1018.9
20260509043900 8 95 3.2 4.8 0.00 0.36 0.00 90 1018.9
20260509043359 8 106 3.2 4.8 0.00 0.36 0.00 89 1018.9
20260509042900 8 138 3.2 4.8 0.00 0.36 0.00 89 1018.8
20260509041859 9 132 0.0 1.6 0.00 0.36 0.00 89 1018.7
20260509041359 9 132 1.6 3.2 0.00 0.36 0.00 89 1018.8
20260509040900 9 132 0.0 3.2 0.00 0.36 0.00 88 1018.7
20260509040359 9 132 0.0 3.2 0.00 0.36 0.00 88 1018.6
20260509035859 9 166 0.0 3.2 0.00 0.36 0.00 88 1018.6
20260509035359 9 166 0.0 4.8 0.00 0.36 0.00 88 1018.6
20260509034900 9 166 1.6 3.2 0.00 0.36 0.00 87 1018.5
20260509034359 9 20 1.6 4.8 0.00 0.36 0.00 87 1018.5
20260509033900 9 95 1.6 4.8 0.00 0.36 0.00 87 1018.5
20260509032359 9 108 1.6 8.0 0.00 0.36 0.00 86 1018.6
20260509031859 9 101 3.2 8.0 0.00 0.36 0.00 86 1018.5
20260509031359 9 159 1.6 3.2 0.00 0.36 0.00 86 1018.5
20260509030359 9 221 1.6 4.8 0.00 0.36 0.00 85 1018.6
20260509025859 9 183 3.2 4.8 0.00 0.36 0.00 85 1018.5
20260509025359 9 197 1.6 3.2 0.00 0.36 0.00 85 1018.4
20260509024859 9 42 1.6 4.8 0.00 0.36 0.00 85 1018.3
20260509024359 9 110 0.0 3.2 0.00 0.36 0.00 85 1018.4
20260509023359 9 110 1.6 4.8 0.00 0.36 0.00 85 1018.6
20260509021859 9 148 0.0 3.2 0.00 0.36 0.00 85 1018.5
20260509021358 9 148 1.6 4.8 0.00 0.36 0.00 85 1018.4
20260509020900 9 36 1.6 4.8 0.00 0.36 0.00 85 1018.4
20260509020359 9 36 1.6 4.8 0.00 0.36 0.00 85 1018.3
20260509015859 9 36 0.0 3.2 0.00 0.36 0.00 85 1018.4
20260509015359 9 36 0.0 0.0 0.00 0.36 0.00 85 1018.3
20260509014859 9 36 0.0 0.0 0.00 0.36 0.00 85 1018.4
20260509014359 9 36 0.0 1.6 0.00 0.36 0.00 85 1018.4
20260509012859 9 36 0.0 3.2 0.00 0.36 0.00 84 1018.5
20260509012359 9 36 0.0 3.2 0.00 0.36 0.00 84 1018.5
20260509011359 9 36 1.6 3.2 0.00 0.36 0.00 84 1018.4
20260509010859 9 36 1.6 3.2 0.00 0.36 0.00 84 1018.4
20260509010359 10 36 0.0 3.2 0.00 0.36 0.00 83 1018.5
20260509005859 10 36 0.0 0.0 0.00 0.36 0.00 83 1018.5
20260509005359 10 36 0.0 3.2 0.00 0.36 0.00 82 1018.5
20260509004900 10 36 0.0 3.2 0.00 0.36 0.00 82 1018.4
20260509004358 10 36 1.6 4.8 0.00 0.36 0.00 82 1018.5
20260509003859 10 36 1.6 3.2 0.00 0.36 0.00 81 1018.6
20260509003359 10 36 1.6 14.5 0.00 0.36 0.00 81 1018.6
20260509002859 10 36 0.0 3.2 0.00 0.36 0.00 81 1018.5
20260509002359 10 36 0.0 3.2 0.00 0.36 0.00 80 1018.5
20260509001859 10 36 0.0 3.2 0.00 0.36 0.00 80 1018.4
20260509001400 10 36 1.6 4.8 0.00 0.36 0.00 80 1018.4
20260509000859 10 36 0.0 3.2 0.00 0.36 0.00 81 1018.4
20260509000359 10 36 0.0 3.2 0.00 0.36 0.00 80 1018.4
20260508235859 10 329 0.0 4.8 0.00 0.36 0.00 80 1018.4
20260508235359 10 36 1.6 1.6 0.00 0.36 0.00 79 1018.5
20260508234359 10 6 3.2 4.8 0.00 0.36 0.00 79 1018.4
20260508233859 10 43 1.6 4.8 0.00 0.36 0.00 78 1018.4
20260508233359 10 328 3.2 8.0 0.00 0.36 0.00 78 1018.5
20260508232900 10 19 3.2 8.0 0.00 0.36 0.00 78 1018.4
20260508232359 10 80 1.6 4.8 0.00 0.36 0.00 76 1018.5
20260508231859 10 18 3.2 8.0 0.00 0.36 0.00 76 1018.4